• In Russia
  • List of Countries
  • For 7 days
  • Water Temperature
  • Weather Map
  • Weather Widgets
  • user-avatar
    Login

    Hourly Weather Laszkar Gah

    Today, 5 April, Sunday

    Time Temperature Precipitation Wind Pressure Humidity
    00:00 +19°C° 0 mm 4 mps 694 mmHg 52%
    01:00 +19°C° 0 mm 4 mps 694 mmHg 53%
    02:00 +19°C° 0 mm 4 mps 694 mmHg 53%
    03:00 +18°C° 0 mm 4 mps 694 mmHg 54%
    04:00 +18°C° 0 mm 3 mps 694 mmHg 55%
    05:00 +18°C° 0 mm 3 mps 694 mmHg 54%
    06:00 +19°C° 0 mm 3 mps 695 mmHg 52%
    07:00 +19°C° 0 mm 3 mps 695 mmHg 51%
    08:00 +21°C° 0 mm 3 mps 696 mmHg 45%
    09:00 +22°C° 0 mm 3 mps 696 mmHg 39%
    10:00 +25°C° 0 mm 2 mps 696 mmHg 35%
    11:00 +26°C° 0 mm 2 mps 696 mmHg 30%
    12:00 +27°C° 0 mm 2 mps 696 mmHg 25%
    13:00 +28°C° 0 mm 1 mps 695 mmHg 20%
    14:00 +28°C° 0 mm 1 mps 695 mmHg 19%
    15:00 +28°C° 0 mm 1 mps 694 mmHg 18%
    16:00 +29°C° 0 mm 1 mps 694 mmHg 18%
    17:00 +28°C° 0 mm 2 mps 694 mmHg 20%
    18:00 +27°C° 0 mm 3 mps 694 mmHg 22%
    19:00 +26°C° 0 mm 4 mps 693 mmHg 24%
    20:00 +25°C° 0.1 mm 4 mps 693 mmHg 27%
    21:00 +23°C° 0.1 mm 5 mps 693 mmHg 31%
    22:00 +22°C° 0.1 mm 5 mps 693 mmHg 34%
    23:00 +21°C° 0.3 mm 5 mps 693 mmHg 39%

    Tomorrow, 6 April, Monday

    Time Temperature Precipitation Wind Pressure Humidity
    00:00 +21°C° 0.3 mm 4 mps 693 mmHg 43%
    01:00 +20°C° 0.3 mm 4 mps 693 mmHg 48%
    02:00 +19°C° 0.1 mm 4 mps 693 mmHg 49%
    03:00 +19°C° 0.1 mm 4 mps 693 mmHg 50%
    04:00 +19°C° 0.1 mm 4 mps 693 mmHg 51%
    05:00 +19°C° 0 mm 3 mps 693 mmHg 50%
    06:00 +19°C° 0 mm 3 mps 694 mmHg 49%
    07:00 +19°C° 0 mm 2 mps 694 mmHg 48%
    08:00 +21°C° 0 mm 3 mps 695 mmHg 42%
    09:00 +24°C° 0 mm 3 mps 695 mmHg 36%
    10:00 +26°C° 0 mm 4 mps 695 mmHg 30%
    11:00 +26°C° 0 mm 6 mps 695 mmHg 25%
    12:00 +27°C° 0 mm 7 mps 695 mmHg 21%
    13:00 +28°C° 0 mm 9 mps 695 mmHg 16%
    14:00 +27°C° 0 mm 9 mps 694 mmHg 18%
    15:00 +27°C° 0 mm 10 mps 694 mmHg 19%
    16:00 +26°C° 0 mm 10 mps 693 mmHg 21%
    17:00 +24°C° 0 mm 9 mps 694 mmHg 26%
    18:00 +22°C° 0 mm 7 mps 694 mmHg 30%
    19:00 +20°C° 0 mm 5 mps 694 mmHg 35%
    20:00 +20°C° 0 mm 4 mps 694 mmHg 36%
    21:00 +19°C° 0 mm 4 mps 694 mmHg 38%
    22:00 +19°C° 0 mm 3 mps 695 mmHg 39%
    23:00 +18°C° 0 mm 3 mps 694 mmHg 42%

    Day after tomorrow, 7 April, Tuesday

    Time Temperature Precipitation Wind Pressure Humidity
    00:00 +18°C° 0 mm 3 mps 694 mmHg 44%
    01:00 +17°C° 0 mm 3 mps 694 mmHg 47%
    02:00 +17°C° 0 mm 3 mps 694 mmHg 48%
    03:00 +16°C° 0 mm 2 mps 693 mmHg 50%
    04:00 +16°C° 0 mm 2 mps 693 mmHg 52%
    05:00 +16°C° 0 mm 2 mps 694 mmHg 50%
    06:00 +17°C° 0 mm 2 mps 694 mmHg 48%
    07:00 +17°C° 0 mm 2 mps 695 mmHg 47%
    08:00 +18°C° 0 mm 2 mps 695 mmHg 42%
    09:00 +21°C° 0 mm 1 mps 695 mmHg 36%
    10:00 +22°C° 0 mm 1 mps 695 mmHg 31%
    11:00 +23°C° 0 mm 1 mps 695 mmHg 28%
    12:00 +24°C° 0 mm 1 mps 694 mmHg 26%
    13:00 +25°C° 0 mm 2 mps 694 mmHg 23%
    14:00 +25°C° 0 mm 2 mps 694 mmHg 22%
    15:00 +26°C° 0 mm 2 mps 693 mmHg 21%
    16:00 +26°C° 0 mm 2 mps 692 mmHg 20%
    17:00 +25°C° 0 mm 2 mps 693 mmHg 23%
    18:00 +25°C° 0 mm 2 mps 693 mmHg 25%
    19:00 +24°C° 0 mm 2 mps 693 mmHg 28%
    20:00 +24°C° 0 mm 2 mps 693 mmHg 29%
    21:00 +23°C° 0 mm 2 mps 693 mmHg 31%
    22:00 +21°C° 0 mm 2 mps 693 mmHg 32%
    23:00 +21°C° 0 mm 2 mps 693 mmHg 34%

    8 April, Wednesday

    Time Temperature Precipitation Wind Pressure Humidity
    00:00 +20°C° 0 mm 2 mps 692 mmHg 35%
    01:00 +19°C° 0 mm 2 mps 692 mmHg 37%
    02:00 +19°C° 0 mm 2 mps 692 mmHg 38%
    03:00 +19°C° 0 mm 2 mps 692 mmHg 40%
    04:00 +18°C° 0 mm 2 mps 692 mmHg 42%
    05:00 +18°C° 0 mm 2 mps 693 mmHg 44%
    06:00 +19°C° 0 mm 2 mps 693 mmHg 46%
    07:00 +20°C° 0 mm 1 mps 693 mmHg 49%
    08:00 +21°C° 0 mm 2 mps 694 mmHg 43%
    09:00 +22°C° 0 mm 3 mps 694 mmHg 38%
    10:00 +25°C° 0 mm 3 mps 695 mmHg 32%
    11:00 +26°C° 0 mm 4 mps 694 mmHg 29%
    12:00 +27°C° 0 mm 4 mps 694 mmHg 26%
    13:00 +28°C° 0 mm 5 mps 694 mmHg 23%
    14:00 +28°C° 0 mm 5 mps 693 mmHg 22%
    15:00 +28°C° 0 mm 5 mps 693 mmHg 21%
    16:00 +29°C° 0 mm 5 mps 692 mmHg 20%
    17:00 +28°C° 0 mm 5 mps 692 mmHg 23%
    18:00 +27°C° 0 mm 5 mps 692 mmHg 26%
    19:00 +26°C° 0 mm 5 mps 692 mmHg 28%
    20:00 +24°C° 0 mm 6 mps 693 mmHg 32%
    21:00 +23°C° 0 mm 7 mps 693 mmHg 35%
    22:00 +22°C° 0 mm 8 mps 693 mmHg 39%
    23:00 +21°C° 0 mm 8 mps 693 mmHg 41%

    9 April, Thursday

    Time Temperature Precipitation Wind Pressure Humidity
    00:00 +21°C° 0 mm 9 mps 693 mmHg 44%
    01:00 +19°C° 0 mm 9 mps 693 mmHg 46%
    02:00 +18°C° 0 mm 9 mps 693 mmHg 48%
    03:00 +17°C° 0 mm 8 mps 693 mmHg 50%
    04:00 +16°C° 0 mm 8 mps 693 mmHg 51%
    05:00 +16°C° 0 mm 8 mps 693 mmHg 50%
    06:00 +15°C° 0 mm 8 mps 694 mmHg 49%
    07:00 +15°C° 0 mm 8 mps 694 mmHg 48%
    08:00 +16°C° 0 mm 8 mps 695 mmHg 43%
    09:00 +17°C° 0 mm 7 mps 695 mmHg 38%
    10:00 +20°C° 0 mm 7 mps 696 mmHg 34%
    11:00 +21°C° 0 mm 7 mps 695 mmHg 30%
    12:00 +22°C° 0 mm 8 mps 695 mmHg 26%
    13:00 +24°C° 0 mm 8 mps 695 mmHg 22%
    14:00 +24°C° 0 mm 7 mps 695 mmHg 20%
    15:00 +24°C° 0 mm 7 mps 694 mmHg 19%
    16:00 +24°C° 0 mm 7 mps 694 mmHg 17%
    17:00 +23°C° 0 mm 6 mps 694 mmHg 19%
    18:00 +22°C° 0 mm 5 mps 694 mmHg 21%
    19:00 +21°C° 0 mm 4 mps 694 mmHg 22%
    20:00 +20°C° 0 mm 4 mps 694 mmHg 24%
    21:00 +19°C° 0 mm 4 mps 694 mmHg 26%
    22:00 +18°C° 0 mm 4 mps 695 mmHg 28%
    23:00 +18°C° 0 mm 4 mps 694 mmHg 30%

    10 April, Friday

    Time Temperature Precipitation Wind Pressure Humidity
    00:00 +17°C° 0 mm 4 mps 694 mmHg 31%
    01:00 +17°C° 0 mm 4 mps 694 mmHg 33%
    02:00 +16°C° 0 mm 2 mps 694 mmHg 35%
    03:00 +16°C° 0 mm 1 mps 694 mmHg 38%
    04:00 +14°C° 0 mm 0 mps 694 mmHg 40%
    05:00 +15°C° 0 mm 0 mps 694 mmHg 37%
    06:00 +18°C° 0 mm 1 mps 695 mmHg 33%
    07:00 +19°C° 0 mm 1 mps 696 mmHg 29%
    08:00 +20°C° 0 mm 1 mps 696 mmHg 26%
    09:00 +22°C° 0 mm 1 mps 696 mmHg 23%
    10:00 +23°C° 0 mm 1 mps 696 mmHg 20%
    11:00 +24°C° 0 mm 1 mps 696 mmHg 19%
    12:00 +26°C° 0 mm 1 mps 695 mmHg 19%
    13:00 +27°C° 0 mm 1 mps 695 mmHg 18%
    14:00 +27°C° 0 mm 2 mps 695 mmHg 18%
    15:00 +28°C° 0 mm 2 mps 695 mmHg 19%
    16:00 +28°C° 0 mm 2 mps 694 mmHg 19%
    17:00 +28°C° 0 mm 2 mps 695 mmHg 22%
    18:00 +27°C° 0 mm 1 mps 695 mmHg 24%
    19:00 +27°C° 0 mm 1 mps 695 mmHg 27%
    20:00 +26°C° 0 mm 1 mps 695 mmHg 27%
    21:00 +26°C° 0 mm 1 mps 695 mmHg 28%
    22:00 +26°C° 0 mm 1 mps 696 mmHg 28%
    23:00 +25°C° 0 mm 1 mps 695 mmHg 29%
    Show more